Regional Weather Roundup
Issued by NWS

Home | Current Version | Previous Version | Graphics & Text | Print | Product List | Glossary On
Versions: 1 2 3 4 5 6 7 8 9 10 11 12 13 14 15 16 17 18 19 20 21 22 23 24 25 26 27 28 29 30 31 32 33 34 35 36 37 38 39 40 41 42 43 44 45 46 47 48 49 50
000
ASUS45 KPSR 261310
RWRAZ

ARIZONA REGIONAL HOURLY WEATHER ROUNDUP
NATIONAL WEATHER SERVICE PHOENIX AZ
600 AM MST THU MAR 26 2015

NOTE: FAIR INDICATES FEW OR NO CLOUDS BELOW 12,000 FEET WITH NO
SIGNIFICANT WEATHER AND/OR OBSTRUCTIONS TO VISIBILITY.

AZZ001>003-036-261400-
NORTHWEST ARIZONA

CITY           SKY/WX    TMP DP  RH WIND       PRES   REMARKS
BULLHEAD CITY  CLEAR     66  18  15 N21G29    30.14S
KINGMAN        PTCLDY    43  18  36 E9        30.23R
$$

AZZ004>008-015-016-018-261400-
NORTH CENTRAL ARIZONA

CITY           SKY/WX    TMP DP  RH WIND       PRES   REMARKS
GRAND CANYON   PTCLDY    33  12  41 CALM      30.34R
WILLIAMS       PTCLDY    32  12  43 SE5       30.36S WCI  27
PRESCOTT       MOCLDY    37  21  52 CALM      30.25R
FLAGSTAFF      PTCLDY    38   5  25 E7        30.31R WCI  33
PAYSON         PTCLDY    48  10  21 SE5       30.25S
$$

AZZ009>014-017-261400-
NORTHEAST ARIZONA

CITY           SKY/WX    TMP DP  RH WIND       PRES   REMARKS
WINSLOW        MOCLDY    29  14  53 SW6       30.32R WCI  23
SAINT JOHNS    CLOUDY    32  14  47 NE3       30.30R
WINDOW ROCK    PTCLDY    23   7  50 S3        30.32R
SHOW LOW       PTCLDY    28   5  37 CALM      30.32S
$$

AZZ023-261400-
GREATER PHOENIX AREA

CITY           SKY/WX    TMP DP  RH WIND       PRES   REMARKS
PHOENIX        PTCLDY    69  24  18 E9        30.04R
BUCKEYE        CLEAR     57  28  33 NE3       30.05R
GLENDALE       PTCLDY    61  34  36 NE6       30.06
LUKE AFB       CLEAR     69  24  18 N14       30.04R
DEER VALLEY    CLEAR     61  28  28 CALM      30.06R
SCOTTSDALE     CLEAR     64  28  25 CALM      30.07R
MESA-FALCON    PTCLDY    64  21  19 N9        30.05
MESA-GATEWAY   PTCLDY    57  30  35 CALM      30.08R
CHANDLER       PTCLDY    57  37  47 NW5       30.05
$$

AZZ027-028-261400-
SOUTHWEST MARICOPA COUNTY AND PINAL COUNTY

CITY           SKY/WX    TMP DP  RH WIND       PRES   REMARKS
CASA GRANDE    CLEAR     54  30  40 CALM      30.05R
GILA BEND      FAIR      54  28  37 S2        30.03R
$$

AZZ503-504-507>509-261400-
SOUTHEAST ARIZONA

CITY           SKY/WX    TMP DP  RH WIND       PRES   REMARKS
TUCSON         CLEAR     53  31  42 SE10      30.12R
DAVIS-MONTHAN  CLEAR     52  32  46 E7        30.10R
NOGALES        CLEAR     45  29  53 CALM      30.15R
SIERRA VISTA   CLEAR     55  27  34 W3        30.20R
DOUGLAS        CLEAR     43  30  60 NW3       30.19R
SAFFORD        CLEAR     53  19  26 SE9       30.15R
$$

AZZ020-021-025-026-031-261400-
SOUTHWEST ARIZONA

CITY           SKY/WX    TMP DP  RH WIND       PRES   REMARKS
YUMA           CLEAR     65  32  29 CALM      30.01R
$$

CAZ031-033-041-043-047-048-061-261400-
SOUTHERN CALIFORNIA

CITY           SKY/WX    TMP DP  RH WIND       PRES   REMARKS
DOWNTOWN L.A.  CLEAR     61  42  49 CALM      30.04S
L.A. AIRPORT   CLEAR     60  48  64 E3        30.05S
SAN DIEGO      CLEAR     61  47  59 N3        30.05S
BURBANK        CLEAR     59  34  39 CALM      30.06S
ONTARIO        CLEAR     64  32  30 NE5       30.08R
RIVERSIDE      CLEAR     58  33  39 NE3       30.08S
PALM SPRINGS   CLEAR     67  25  20 N9        30.09R
EL CENTRO NAS  PTCLDY    60  27  28 W7        30.02R
IMPERIAL       CLEAR     57  36  45 W7        30.01R
BLYTHE         CLEAR     68  25  19 NW3       30.05R
NEEDLES        CLEAR     67  17  14 N20       30.13R
$$

NVZ020-UTZ003-261400-
SOUTHERN NEVADA-UTAH

CITY           SKY/WX    TMP DP  RH WIND       PRES   REMARKS
LAS VEGAS      PTCLDY    59  19  21 NW3       30.20S
SALT LAKE CITY PTCLDY    35  22  58 SE7       30.39S WCI  29
$$

NMZ009-TXZ055-261400-
NEW MEXICO-WEST TEXAS

CITY           SKY/WX    TMP DP  RH WIND       PRES   REMARKS
ALBUQUERQUE    CLEAR     38  25  59 N9        30.32R WCI  31
EL PASO        CLEAR     47  28  47 N3        30.25R
$$


........................KEY........................
SKY/WX - SKY CONDITION/WEATHER
TMP    - TEMPERATURE IN FAHRENHEIT
DP     - DEW POINT IN FAHRENHEIT
RH     - RELATIVE HUMIDITY IN PERCENT
WIND   - DIRECTION AND SPEED IN MILES PER HOUR (MPH)
VRB    - VARIABLE WIND DIRECTION
PRES   - MEAN SEA LEVEL PRESSURE IN INCHES OF MERCURY
         F - FALLING PRESSURE   R - RISING PRESSURE
         S - STEADY PRESSURE
VSB    - VISIBILITY IN MILES
HX     - HEAT INDEX IN FAHRENHEIT
WCI    - WIND CHILL INDEX IN FAHRENHEIT
TC     - TEMPERATURE IN CELSIUS WHICH IS ALSO KNOWN AS
         TEMPERATURE IN CENTIGRADE
AFB    - AIR FORCE BASE
         LUKE AFB IS LUKE AIR FORCE BASE
         DAVIS-MONTHAN IS DAVIS-MONTHAN AIR FORCE BASE
NAS    - NAVAL AIR STATION
         EL CENTRO NAS IS EL CENTRO NAVAL AIR STATION
N/A    - NOT AVAILABLE



USA.gov is the U.S. government's official web portal to all federal, state and local government web resources and services.